Flag for Western Sahara Weather past 2 weeks in Smara, Western Sahara

Now
84 °F

Clear.


Feels Like: 82 °F
Forecast: 77 / 98 °F
Wind: 10 mph from Northeast

Location: Laayoune/Hassan Isl

Current Time: Oct 22, 2014 at 11:53:30 AM

Latest Report: Oct 22, 2014 at 11:00 AM


Visibility: 5 mi

Pressure: 30.09 "Hg

Humidity: 23%

Dew point: 43 °F

Location of SmaraLocation

Historic Weather in Smara — Graph

°F

Smara temperature yesterday

Maximum temperature yesterday: 97 °F (at 2:00 PM)
Minimum temperature yesterday: 72 °F (at 2:00 AM)
Average temperature yesterday: 80 °F

Past Weeks' High & Low Weather Summary

 TemperatureHumidityPressure
High97 °F (Oct 21, 2:00 PM)100% (Oct 8, 7:00 PM)30.12 "Hg (Oct 8, 7:00 PM)
Low45 °F (Oct 8, 7:00 PM)18% (Oct 21, 2:00 PM)29.83 "Hg (Oct 19, 2:00 PM)
Average72 °F73%30.00 "Hg
* Reported Oct 7 11:00 AM — Oct 22 11:00 AM, Smara, Weather by CustomWeather, © 2014

Note: Actual official high and low records may vary slightly from our data, if they occured in-between our weather recording intervals... More about our weather records

Advertising

Smara weather history for previous 24 hours

 ConditionsComfort  
Time TempWeatherWind HumidityBarometerVisibility
11:00 AM
Oct 22
84 °FClear.10 mph23%30.09 "Hg5 mi
10:19 AM81 °FPleasantly warm.10 mph30%30.12 "Hg5 mi
10:00 AM77 °FClear.9 mph39%30.09 "Hg5 mi
9:38 AM77 °FPleasantly warm.6 mph36%30.09 "Hg5 mi
9:00 AM73 °FClear.14 mph38%30.09 "Hg5 mi
8:00 AM75 °FMild.16 mph31%30.07 "Hg5 mi
7:00 AM73 °FMild.15 mph36%30.07 "HgN/A
6:00 AM73 °FMild.12 mph38%30.07 "HgN/A
5:00 AM75 °FMild.13 mph47%30.07 "HgN/A
4:00 AM75 °FClear.13 mph50%30.07 "Hg10 mi
3:00 AM73 °FMild.13 mph61%30.07 "HgN/A
2:00 AM73 °FMild.12 mph69%30.09 "HgN/A
1:00 AM73 °FMild.14 mph74%30.09 "HgN/A
12:00 AM75 °FMild.13 mph61%30.09 "HgN/A
11:00 PM
Oct 21
75 °FMild.9 mph65%30.09 "HgN/A
10:00 PM77 °FWarm.8 mph61%30.09 "HgN/A
9:00 PM77 °FWarm.8 mph69%30.07 "HgN/A
8:00 PM79 °FWarm.9 mph58%30.07 "HgN/A
7:00 PM81 °FSunny.10 mph54%30.04 "Hg10 mi
6:00 PM82 °FWarm.14 mph55%30.04 "HgN/A
5:00 PM90 °FHot.15 mph41%N/AN/A
4:00 PM90 °FHot.16 mph43%30.04 "HgN/A
3:00 PM95 °FExtremely hot.12 mph32%30.04 "HgN/A
2:00 PM97 °FExtremely hot.6 mph18%30.04 "HgN/A
1:00 PM95 °FExtremely hot.6 mph20%30.07 "HgN/A
12:29 PM91 °FHot.6 mph30%30.07 "HgN/A
12:00 PM88 °FPleasantly warm.7 mph35%30.07 "HgN/A
11:36 AM84 °FWarm.12 mph45%30.07 "HgN/A
11:00 AM81 °FWarm.12 mph54%30.07 "HgN/A
Weather by CustomWeather, © 2014

See weather overviewHow to use our weather pages